Regional Weather Roundup
Issued by NWS

Home | Current Version | Previous Version | Graphics & Text | Print | Product List | Glossary Off
Versions: 1 2 3 4 5 6 7 8 9 10 11 12 13 14 15 16 17 18 19 20 21 22 23 24 25 26 27 28 29 30 31 32 33 34 35 36 37 38 39 40 41 42 43 44 45 46 47 48 49 50

000
ASUS43 KTOP 052159
RWRKS

WEATHER ROUNDUP FOR KANSAS
NATIONAL WEATHER SERVICE GOODLAND KS
400 PM CST MON DEC 05 2016

NOTE:  "FAIR" INDICATES FEW OR NO CLOUDS BELOW 12,000 FEET WITH NO
SIGNIFICANT WEATHER AND/OR OBSTRUCTIONS TO VISIBILITY.

KSZ001>006-013>018-027>032-041>047-052300-
NORTHWEST KANSAS

CITY           SKY/WX    TMP DP  RH WIND       PRES   REMARKS
GOODLAND       CLOUDY    52  21  29 N25G37    29.63R
HAYS           SUNNY     56  30  37 S10       29.60R
HILL CITY      MOSUNNY   53  30  41 E5        29.61R
RUSSELL        SUNNY     54  35  48 S16       29.59R
$$

KSZ061>065-074>080-084>089-052300-
SOUTHWEST KANSAS

CITY           SKY/WX    TMP DP  RH WIND       PRES   REMARKS
DODGE CITY     SUNNY     59  27  29 S16       29.55R
ELKHART          N/A     66  26  22 SE8         N/A
GARDEN CITY    SUNNY     56  31  38 S14       29.53S
GREAT BEND     SUNNY     55  34  45 S13       29.60R
LIBERAL        SUNNY     63  30  29 S15       29.55S
$$

KSZ066>073-081>083-090>101-052300-
SOUTHEAST KANSAS

CITY           SKY/WX    TMP DP  RH WIND       PRES   REMARKS
CHANUTE        CLEAR     49  38  65 S13       29.73F
COFFEYVILLE    CLOUDY    49  40  71 S10       29.74F
HUTCHINSON     SUNNY     53  34  48 S15G25    29.64R
MEDICINE LODGE   N/A     52  36  54 S15G24    29.61S
NEWTON         SUNNY     52  35  52 S17G24    29.65R
PARSONS        CLEAR     50  39  66 S6        29.73F
WICHITA INTL   MOSUNNY   52  36  54 S20G26    29.64F
WICHITA JABRA  SUNNY     51  35  54 S15G24    29.65S
WINFIELD       SUNNY     52  37  56 S15       29.68F
$$

KSZ007>012-019>026-033>040-048>060-102>105-052300-
NORTHEAST KANSAS

CITY           SKY/WX    TMP DP  RH WIND       PRES   REMARKS
CONCORDIA      CLEAR     52  34  50 S13       29.65F
EMPORIA        CLEAR     49  37  63 SE14G25   29.70R
LAWRENCE       CLEAR     51  38  60 SE12      29.73S
MANHATTAN      CLEAR     55  31  39 S14G22    29.67R
OLATHE IND     CLEAR     50  35  56 S13       29.74S
OLATHE EXE     CLEAR     49  34  56 S13       29.74S
SALINA         SUNNY     54  35  48 S13       29.66R
TOPEKA BILLARD CLEAR     51  36  56 SE13      29.73R
TOPEKA FORBES  CLEAR     52  37  56 SE12      29.72R
$$




USA.gov is the U.S. government's official web portal to all federal, state and local government web resources and services.